Location: S�tio Afonso Gruber
(26.1760°S, 49.5250°W)
Time: 21:33:01
(UTC+00:00)

Cosmos 2016 Rocket - Pass Details

Date: 06 October 2020
Orbit: 946 x 1001 km, 83.0° (Epoch: 27 October)

Event Time Altitude Azimuth Distance (km) Brightness Sun altitude
Exits shadow 07:29:00 - 343° (NNW) 2,792 6.1 -19.1°
Reaches altitude 10° 07:29:15 10° 343° (NNW) 2,702 6.0 -19.0°
Maximum altitude 07:35:21 59° 264° (W) 1,124 4.0 -17.7°
Drops below altitude 10° 07:41:36 10° 184° (S) 2,769 6.5 -16.3°
Sets 07:44:13 0° 180° (S) 3,731 7.2 -15.8°
